Лейк-Элсинор

США     33°37′41″N   117°22′12″W
темп.,
°C
ветер,
м/с
пор.,
м/с
влажн.,
%
обл.,
%
осадки,
мм/ч
давл.,
гПа
погр.,
м
19 апреля, пн
пн1923:00+13св01180 0.0 101711
02:00+12ссв11210 0.0 101611
05:00+11св11270 0.0 101611
08:00+20св11100 0.0 101773
11:00+27сз1180 0.0 10161253
14:00+30зсз5460 0.0 10132767
17:00+28з77100 0.0 10121432
20:00+17ю22280 0.0 101411
20 апреля, вт
вт2023:00+14ююв11420 0.0 101411
02:00+13ююв22470 0.0 101311
05:00+11ююв22530 0.0 101211
08:00+17юв22370 0.0 1013164
11:00+24ю44190 0.0 10121052
14:00+26ю65160 0.0 10101568
17:00+22ю77264 0.0 1009713
20:00+12ю33750 0.0 101159
21 апреля, ср
ср2123:00+9ююв359746 0.0 1013122
02:00+9ююв468850 0.0 1012219
05:00+10ююв578398 0.0 1011659
08:00+11ю557286 0.1 1012796
11:00+13ююв556380 0.1 10131126
14:00+15ю655987 0.1 10121091
17:00+15ю655669 0.1 1010974
20:00+10ю458158 0.0 1012186
22 апреля, чт
чт2223:00+10ю238592 0.0 1013240
02:00+10ю2282100 0.0 1013303
05:00+9ююз228799 0.0 1012170
08:00+11ю1280100 0.0 1014395
11:00+14зюз116259 0.1 1014983
14:00+20зюз124017 0.0 10111560
17:00+18зюз335042 0.1 1010940
20:00+12юз22762 0.1 101327
23 апреля, пт
пт2323:00+9ю22912 0.1 101413
02:00+8ю119553 0.0 101514
05:00+9ююв119082 0.0 1015137
08:00+12юз017566 0.0 1016567
11:00+17юз12500 0.0 1015960
14:00+23зюз123524 0.0 10131513
17:00+21ююз33425 0.0 10131075
20:00+12ю22760 0.0 101525